Theta_e
333 332 334 336 336 337 338 338 339 341 339 339 340 337 339 339 340 340 341 342 340 339 339 339 340 340 341 339 338 337 336 335 334 332 330 331 328 328 333 331 332 333 330 329 327 321 318 315 318 325 326 327 328 327 328 328 327 327 328 326 327 328 328
337 335 335 336 334 336 338 339 340 337 339 340 339 339 338 337 338 339 339 339 340 337 335 335 337 336 337 340 338 338 336 336 335 335 332 330 331 329 329 328 330 330 329 329 329 326 320 317 316 319 319 325 326 327 326 328 326 327 327 327 324 324 325
335 336 337 334 336 338 337 338 339 337 337 340 340 338 338 337 338 338 338 337 339 338 336 335 336 337 336 336 339 338 337 336 337 335 333 332 332 333 332 331 329 326 326 325 326 325 324 323 317 317 319 319 318 321 326 326 326 325 322 321 321 320 320
332 335 333 334 335 333 331 335 337 338 338 337 340 340 341 338 339 339 338 337 339 341 337 335 337 334 337 337 338 338 337 336 336 335 334 334 335 333 330 329 326 328 325 323 322 323 322 320 318 318 320 321 320 319 323 326 322 321 320 322 316 316 316
333 332 330 331 334 333 333 334 336 337 336 337 338 337 337 338 340 339 340 338 337 339 339 339 337 336 336 337 338 338 337 336 336 334 333 333 332 331 331 333 332 331 330 327 326 325 324 323 322 318 318 320 320 321 323 324 322 319 317 315 315 315 313
335 334 332 334 335 334 333 333 333 333 334 334 336 335 338 336 338 338 338 338 337 338 339 338 338 339 337 337 336 336 336 335 335 334 333 333 333 330 332 332 331 331 331 332 331 330 329 326 324 318 319 321 317 318 320 321 316 317 316 315 314 312 309
333 335 335 335 336 335 335 333 333 333 334 334 335 336 337 335 338 339 339 338 338 338 339 338 337 339 339 336 337 336 334 335 335 335 334 334 335 332 333 331 330 329 331 333 332 331 327 325 324 320 318 318 318 315 316 317 315 313 313 314 313 310 308
333 333 331 330 334 336 335 334 336 336 335 334 335 337 336 337 337 336 338 338 337 337 336 337 336 335 339 337 338 336 337 336 335 335 334 333 334 332 333 333 333 331 331 332 333 332 330 327 326 324 319 315 315 314 312 313 312 312 310 310 310 308 309
332 332 330 328 330 333 335 335 336 337 336 335 336 335 335 337 335 336 337 337 337 336 336 336 337 334 336 336 337 338 335 334 335 334 334 333 333 334 332 333 332 333 333 332 332 332 331 328 329 330 327 317 311 308 312 309 309 308 311 306 307 310 311
331 330 329 328 329 334 336 337 334 336 336 336 335 335 335 336 335 335 333 335 337 337 338 337 335 335 334 335 334 336 334 336 334 332 334 334 334 334 334 333 333 331 333 333 332 332 334 331 330 331 330 324 318 310 308 306 309 305 307 306 304 308 311
330 329 330 331 332 333 335 337 336 335 334 335 334 335 336 334 335 335 334 334 336 337 336 336 334 334 333 334 335 336 336 336 335 335 334 333 333 334 333 332 332 332 331 331 331 331 333 333 329 330 330 327 325 318 310 306 306 308 306 305 306 306 310
330 330 331 331 332 333 334 335 335 335 336 334 333 334 334 331 334 335 333 332 335 335 335 335 334 332 333 332 334 335 336 336 334 334 334 333 334 333 332 332 331 332 331 330 330 330 332 331 329 329 329 327 325 323 313 311 304 310 308 306 305 309 310
332 332 332 333 333 332 333 334 334 333 333 333 333 334 332 330 331 332 332 332 333 333 333 334 332 334 334 334 332 332 332 334 334 331 334 334 331 333 331 332 331 330 331 330 329 329 330 330 329 328 327 327 325 325 322 312 307 307 310 309 306 309 312
331 331 333 333 332 332 333 333 334 333 331 331 331 331 331 329 329 331 329 329 329 331 331 332 332 334 331 330 331 332 330 331 327 328 329 331 330 330 330 328 329 330 331 329 328 328 330 329 329 329 328 326 325 323 323 318 306 306 312 311 307 308 311
330 331 332 332 332 333 332 333 333 331 331 329 329 329 329 331 330 331 327 327 329 326 328 329 331 332 330 329 330 333 332 328 327 326 327 326 328 331 332 331 328 329 331 330 329 328 329 329 327 326 325 324 322 322 323 318 307 306 306 307 307 310 310
328 328 330 331 331 331 332 333 332 332 330 328 330 330 330 331 330 329 327 328 326 326 327 328 331 331 329 329 327 329 330 327 327 326 326 326 324 326 329 330 329 330 331 328 327 327 329 328 327 325 323 323 323 320 319 315 309 308 306 308 310 308 308
329 329 329 330 330 331 332 332 332 332 330 328 328 332 330 330 330 331 327 326 326 324 328 326 330 329 327 328 328 328 328 329 326 326 327 324 323 324 326 328 329 331 331 328 328 326 327 329 327 328 326 323 322 319 323 314 312 310 309 308 307 307 310
329 329 329 330 330 331 331 331 332 330 330 329 327 332 327 332 328 330 331 328 324 324 325 325 327 328 329 330 328 329 327 326 328 327 328 325 326 325 326 328 329 327 327 329 327 325 325 324 326 324 322 322 317 319 322 315 313 313 311 309 310 311 310
329 329 329 330 330 331 331 331 332 329 328 327 328 328 326 329 325 325 327 327 322 323 323 324 326 327 326 328 329 328 327 328 327 326 320 325 325 326 326 327 327 328 325 326 326 326 324 324 323 322 321 319 314 317 317 318 316 313 313 312 310 313 309
330 330 330 330 331 332 330 331 330 331 329 328 326 326 327 326 329 326 323 327 322 322 322 323 325 326 327 326 328 326 327 326 326 329 323 325 326 326 326 326 326 326 324 326 327 326 326 324 323 321 320 322 319 317 316 315 314 313 313 312 311 311 311
330 329 329 330 329 330 329 329 329 330 328 326 324 324 325 324 328 327 328 325 323 322 317 314 312 314 318 325 327 327 326 326 326 324 327 327 324 324 326 328 328 327 327 327 328 327 326 325 326 323 321 323 322 315 314 314 314 313 312 312 309 309 311
331 330 331 329 328 328 329 327 330 329 327 325 328 324 325 323 323 326 322 323 322 320 315 309 304 302 309 313 319 326 327 326 325 324 324 325 323 324 326 328 328 325 324 319 311 311 310 314 323 325 325 324 321 319 317 315 316 316 315 313 314 313 311
329 328 326 325 325 323 325 328 329 326 323 323 326 323 323 323 324 321 322 321 320 316 311 307 299 296 298 304 314 321 326 324 324 324 322 323 322 325 321 324 326 322 316 314 308 301 299 302 307 312 314 318 322 321 323 319 317 316 316 314 312 313 312
326 323 324 325 324 324 324 323 324 322 323 324 324 323 323 321 322 323 321 318 314 310 305 299 294 292 293 295 309 315 320 323 322 322 323 323 322 322 318 317 317 317 315 315 310 301 299 298 297 298 298 302 307 318 320 320 317 318 316 314 315 314 312
326 325 324 323 323 323 323 322 323 321 323 323 324 324 321 320 319 318 315 312 310 306 302 295 292 293 293 293 296 310 319 322 323 322 321 321 321 321 320 318 318 321 322 320 318 315 310 300 298 298 298 298 298 297 302 317 318 316 318 315 315 314 313
317 318 320 322 323 322 323 324 323 323 323 324 322 320 317 316 315 313 310 307 304 303 300 293 292 292 292 292 291 302 319 321 322 321 322 323 321 322 321 321 321 326 322 323 321 319 317 314 299 296 299 304 305 301 298 298 302 313 315 314 314 315 316
315 317 317 316 316 318 319 319 320 322 322 322 320 318 317 314 312 310 308 306 303 300 298 293 292 292 292 291 291 295 318 324 324 323 322 323 323 323 321 321 323 322 322 320 314 314 321 315 315 314 316 316 317 314 304 298 295 295 304 315 315 312 314
313 313 313 312 311 312 313 314 314 315 317 318 318 317 317 315 312 310 307 306 303 301 297 292 291 291 291 292 292 298 320 325 322 323 322 323 322 323 323 324 321 320 316 309 302 298 311 321 320 319 318 319 318 319 318 316 314 313 311 313 314 316 316
310 310 309 309 309 309 309 310 311 312 312 313 314 315 315 314 312 311 311 309 305 301 298 291 291 291 291 291 295 314 321 323 323 322 323 324 322 323 323 323 323 318 311 304 296 293 296 307 321 319 319 319 320 320 321 319 312 310 316 317 317 316 316
306 307 307 307 306 306 307 308 309 310 309 309 309 309 309 310 311 310 309 307 304 300 297 292 291 291 291 291 297 311 317 320 322 323 323 326 325 316 314 319 323 315 306 300 292 292 294 303 320 320 319 319 320 319 319 322 304 302 302 302 300 299 296
304 305 305 305 306 306 306 307 308 308 307 306 306 307 308 307 307 308 307 306 304 301 297 294 291 291 291 291 296 306 311 315 322 322 322 323 318 308 303 305 310 305 300 295 289 290 292 304 313 314 315 316 318 318 317 314 320 320 309 307 304 301 300
303 304 304 304 305 304 305 306 307 308 308 307 307 308 308 306 305 307 308 308 306 301 297 295 291 291 291 291 295 304 311 311 308 308 312 313 314 306 301 296 296 294 294 291 289 289 290 298 304 306 306 309 310 313 307 307 308 311 312 314 317 320 316
302 303 303 303 304 305 305 306 307 307 308 309 308 307 306 305 304 305 307 308 306 302 298 296 293 291 292 292 293 303 305 301 300 302 304 305 308 308 303 299 295 291 290 290 290 289 289 291 298 301 304 304 305 307 304 303 305 306 306 308 311 314 317
301 302 303 304 304 304 305 305 305 305 306 307 308 307 307 307 306 306 306 304 302 303 300 296 294 291 292 292 292 296 299 296 297 300 302 303 304 307 305 300 296 292 291 291 291 290 290 289 291 298 302 303 304 299 296 301 303 301 305 307 308 311 315
302 302 303 303 303 303 305 306 305 305 305 305 305 306 306 306 305 305 306 303 301 301 301 299 296 292 291 292 291 293 297 297 295 300 302 302 303 304 305 302 299 293 291 291 291 291 291 291 290 297 300 296 294 293 298 299 301 304 305 305 304 304 306
302 303 303 303 303 303 304 304 304 305 304 304 304 304 306 306 305 305 305 305 301 300 300 299 295 295 291 291 291 291 290 294 291 300 298 298 300 301 302 300 299 295 291 291 291 291 291 290 291 296 294 293 292 290 291 298 301 303 302 303 303 303 303
303 302 302 303 303 302 303 303 303 305 303 304 304 305 305 306 305 306 305 304 304 301 301 300 295 294 293 290 291 291 290 288 289 295 298 301 301 301 299 298 295 291 292 292 291 291 291 291 293 292 291 290 289 289 295 298 300 302 299 299 300 301 302
Wind_Speed
4 5 5 5 4 3 4 4 4 4 5 4 4 5 5 5 5 3 3 3 4 3 3 3 2 2 0 2 3 3 3 5 3 2 4 3 3 3 3 3 2 2 3 3 3 3 6 6 3 1 1 2 1 2 2 4 5 5 4 7 7 8 7
4 6 4 3 4 3 2 2 3 5 5 4 4 5 5 6 5 4 4 3 3 3 3 4 3 3 3 0 3 2 3 4 4 3 3 3 2 3 4 2 1 3 3 3 3 3 3 6 6 5 3 1 1 2 3 2 3 3 3 3 5 7 6
3 4 4 4 4 4 4 3 3 4 4 3 4 4 3 4 4 4 4 4 3 3 3 3 3 3 4 3 1 2 3 4 3 3 3 3 2 1 2 4 2 2 3 3 1 2 4 2 4 7 7 7 5 2 2 2 4 3 4 6 6 6 6
5 5 3 4 4 6 5 3 3 4 3 4 3 3 3 3 3 3 3 4 2 2 2 3 2 3 3 4 3 3 2 4 4 3 3 3 2 3 3 4 4 4 3 2 4 2 2 3 4 6 6 5 7 5 4 4 3 4 4 3 7 6 5
6 5 6 5 6 7 6 5 4 4 4 4 4 4 3 3 2 2 2 3 3 2 1 2 3 3 4 4 3 2 2 2 4 4 4 3 4 4 3 2 1 4 2 4 5 4 3 3 4 6 6 7 7 4 5 4 7 5 4 5 5 5 7
4 6 6 5 5 6 5 5 4 4 4 4 3 4 3 5 3 2 2 2 3 1 1 2 2 2 2 3 3 3 3 3 3 3 3 2 5 5 4 2 3 2 2 2 4 5 3 4 4 7 6 6 7 7 7 6 4 6 5 6 6 6 9
4 4 3 3 4 4 4 5 5 4 4 4 3 3 4 4 3 2 2 2 3 2 2 1 3 2 2 2 3 2 3 3 3 3 2 3 1 6 4 4 3 2 2 2 2 3 4 5 3 5 6 4 5 6 5 6 7 6 4 6 5 7 8
3 4 4 3 2 0 3 5 4 5 5 5 4 4 5 3 3 3 3 2 3 3 3 2 4 4 2 1 0 3 2 3 3 2 2 3 2 4 4 2 3 2 3 4 4 2 3 4 3 3 4 7 5 3 7 5 5 4 5 4 6 7 9
4 3 4 2 3 4 5 4 4 4 5 5 4 5 4 3 4 3 2 3 3 3 3 3 2 4 3 2 1 1 3 3 3 3 3 4 2 2 5 3 3 2 2 2 2 1 1 4 4 1 2 5 5 5 3 4 5 5 6 5 6 10 9
8 7 7 5 4 5 4 4 5 4 4 4 5 5 4 4 4 3 3 3 2 2 2 2 2 3 4 2 3 1 1 1 3 3 3 3 3 2 3 4 3 4 2 3 2 1 0 4 3 1 1 1 4 6 4 6 4 5 6 6 5 5 8
9 8 6 5 5 6 4 3 4 5 4 5 4 4 3 4 3 3 4 4 3 1 2 0 2 3 4 2 3 2 1 0 1 2 3 3 3 2 3 4 3 3 3 4 2 1 1 3 2 1 1 1 1 2 4 5 3 4 4 5 6 6 8
9 7 7 8 8 7 5 4 4 4 5 5 5 3 3 4 3 3 4 3 2 2 1 2 1 3 3 3 4 2 2 2 2 1 3 3 3 3 3 4 3 2 4 3 3 0 1 3 3 1 0 2 2 3 5 5 5 2 4 4 6 8 9
10 9 9 9 7 7 6 6 5 5 5 5 4 3 4 4 4 4 3 4 2 3 2 2 1 2 2 2 4 4 3 2 2 4 1 2 3 2 3 3 2 3 4 4 2 3 2 2 2 2 1 3 4 3 1 5 6 4 3 4 7 8 10
9 8 7 8 7 6 6 6 5 5 5 5 4 4 3 4 3 4 4 3 4 3 3 2 1 3 2 3 2 1 3 2 3 4 3 3 4 4 4 6 7 4 4 4 4 2 2 2 2 2 3 3 2 3 2 3 5 5 2 5 7 7 9
10 7 5 8 6 7 7 6 5 5 4 5 5 4 5 3 3 3 4 4 3 4 3 2 2 1 3 3 2 2 2 3 3 5 3 3 3 2 2 2 3 5 5 6 4 4 3 3 3 4 4 3 3 4 3 3 6 4 4 4 6 7 8
12 15 10 7 7 7 7 5 5 5 5 5 3 3 4 3 4 3 4 3 4 4 2 2 1 2 3 3 3 3 3 4 3 5 3 3 3 4 2 1 2 3 4 4 6 3 3 3 3 3 5 4 3 4 4 5 6 4 7 4 5 7 6
14 14 13 10 9 8 7 7 5 5 4 4 4 3 4 3 3 2 4 4 4 5 2 3 1 2 4 2 3 2 1 2 4 3 3 3 3 5 3 3 2 1 1 4 4 6 3 1 0 1 2 3 4 5 2 8 6 6 4 5 5 7 6
12 13 12 10 10 9 8 7 6 6 4 4 4 3 6 2 3 2 3 2 4 3 3 2 1 1 2 1 2 2 1 2 2 3 2 4 5 4 4 3 7 6 6 2 0 6 9 5 3 2 6 5 5 3 3 6 6 6 6 5 5 4 7
11 11 11 11 10 8 7 7 5 6 5 4 4 4 3 3 3 2 2 2 5 3 3 2 2 1 3 1 1 2 2 1 1 1 6 2 1 5 3 7 6 2 3 1 1 3 6 11 9 8 8 9 4 3 3 2 5 6 7 5 8 3 6
9 9 9 9 9 8 6 6 5 3 5 4 5 4 3 3 1 3 3 2 5 4 3 1 1 2 1 2 1 1 2 3 1 1 4 3 3 2 4 10 6 5 2 1 2 3 3 5 4 5 8 4 2 4 5 2 2 7 6 6 5 4 5
8 8 8 10 9 8 7 6 5 3 3 5 4 4 3 4 2 1 3 3 4 8 10 9 8 7 8 5 2 1 3 3 1 4 2 2 5 3 7 7 6 5 2 1 0 2 6 1 2 4 4 1 3 4 4 5 3 4 6 5 5 6 4
8 7 7 7 8 8 5 4 3 3 4 4 3 3 3 4 3 2 5 9 10 8 8 7 5 6 6 7 8 1 1 2 2 2 1 2 4 1 7 5 6 5 4 4 4 6 4 5 4 2 2 3 3 3 1 2 2 1 2 3 3 5 4
8 9 10 9 7 7 4 1 2 3 5 3 3 4 3 4 2 4 9 10 9 8 6 5 7 8 6 4 5 6 1 1 2 0 4 2 3 1 7 4 4 9 6 4 5 9 10 9 9 6 3 5 5 3 2 1 1 0 1 1 3 3 4
8 7 9 9 8 7 4 6 4 4 4 3 4 4 4 6 7 8 10 9 8 7 5 5 10 6 6 9 7 5 6 3 0 2 2 2 3 3 8 5 5 6 5 3 4 6 9 9 9 9 10 8 6 4 4 4 3 1 1 3 2 1 3
7 7 9 9 8 8 5 3 4 4 4 5 8 10 10 9 9 8 9 9 9 7 5 9 11 12 10 10 7 5 4 3 2 3 1 1 1 4 6 6 5 4 4 4 3 3 5 7 8 8 8 6 6 5 4 3 2 4 4 4 3 3 4
9 10 10 9 7 6 4 3 7 8 8 8 9 9 9 10 9 9 9 10 9 7 5 12 13 13 12 11 11 7 3 6 0 2 0 1 6 5 4 7 5 3 5 8 4 3 3 2 5 6 5 3 1 4 3 2 2 1 0 2 2 4 3
10 11 12 12 11 8 5 7 6 7 7 8 9 9 9 10 9 9 9 9 8 7 7 11 13 14 13 13 11 7 4 6 1 2 4 4 4 3 5 5 2 4 4 5 8 7 1 4 2 1 0 0 1 2 3 6 7 3 3 2 2 3 5
10 11 11 11 10 8 9 10 10 8 8 8 8 8 8 8 8 9 9 8 8 7 6 12 13 14 13 13 13 6 5 3 5 3 5 4 2 3 2 4 2 8 8 7 6 8 7 2 2 3 3 3 4 4 4 5 4 4 4 4 4 5 5
11 11 11 11 11 9 8 9 10 8 8 8 7 8 7 7 8 9 8 8 8 8 7 14 13 14 14 15 13 5 5 1 2 3 4 5 4 4 4 3 6 8 8 7 9 12 10 7 3 2 1 2 2 4 4 7 9 10 6 2 1 1 2
11 10 10 10 10 9 8 9 8 7 9 8 8 9 8 8 7 7 7 8 8 6 6 12 14 14 15 16 11 6 5 4 1 1 1 1 2 9 8 7 7 8 7 8 10 14 15 11 4 5 4 4 4 4 3 5 11 6 5 4 3 3 4
11 9 10 11 9 8 8 6 6 6 8 8 8 7 6 8 8 7 8 8 6 6 6 10 14 14 15 16 11 7 6 5 2 1 0 1 7 7 11 18 13 9 9 7 11 14 15 11 7 7 7 7 6 6 6 9 7 8 8 7 8 10 9
11 10 10 9 8 8 8 8 6 7 8 7 7 4 5 7 7 6 6 7 10 8 5 8 13 14 15 15 13 7 7 7 8 9 8 7 8 7 7 11 16 12 8 8 12 12 13 11 6 6 6 4 5 4 5 8 8 9 9 10 9 7 7
11 10 10 9 8 8 7 6 6 6 5 4 4 5 5 6 6 4 4 7 7 7 7 6 10 14 14 16 16 9 8 8 8 8 7 7 4 7 7 7 9 12 12 11 10 11 10 10 7 5 4 4 4 5 6 7 5 5 7 7 8 9 9
10 10 8 7 6 6 6 6 6 7 7 6 6 6 6 4 4 3 5 7 7 7 7 6 8 13 14 15 16 11 7 7 5 6 6 6 6 4 6 5 5 8 10 8 7 7 6 5 3 2 1 2 2 3 4 5 7 8 6 6 6 7 7
7 6 7 6 6 5 5 4 4 4 5 5 6 5 1 3 4 4 6 7 7 8 8 9 6 10 12 12 13 13 8 6 6 5 5 6 6 5 6 4 4 6 7 7 8 7 4 1 2 2 3 6 7 4 3 4 5 5 5 6 6 6 7
6 7 6 5 6 7 5 5 5 5 4 4 5 3 0 2 4 3 4 6 7 7 6 5 8 7 8 10 10 10 9 7 10 6 4 3 4 4 6 5 5 11 10 8 5 4 5 6 5 5 8 7 6 2 3 4 5 5 5 5 5 6 6
9 9 9 7 7 6 5 3 3 2 1 0 1 2 2 0 2 2 4 5 7 6 5 5 6 9 7 7 7 6 5 5 4 4 4 3 5 6 6 5 6 11 13 14 13 10 9 5 5 9 9 9 5 4 3 4 5 6 5 4 5 5 5
Wind_Direction
147 154 163 162 172 174 178 184 176 170 191 176 175 158 153 152 157 164 175 169 156 164 144 157 201 168 74 177 154 151 125 127 130 136 139 132 153 127 137 148 141 132 133 105 138 155 132 139 154 163 94 247 161 127 131 149 160 164 176 142 138 137 139
143 145 157 158 164 184 190 187 185 168 180 163 176 155 167 156 155 160 164 153 163 156 178 179 180 160 140 71 117 115 125 118 138 120 104 112 107 135 145 126 167 134 141 105 147 152 128 136 141 154 155 164 98 70 133 172 134 134 153 158 129 130 136
136 140 161 166 177 135 178 193 188 165 170 155 156 152 158 143 156 154 156 158 160 162 195 160 164 142 137 122 122 137 141 123 101 107 116 120 130 137 108 90 100 123 107 115 69 94 83 114 140 149 154 149 135 116 151 195 173 146 108 113 122 115 107
167 149 142 178 172 145 189 199 182 158 144 156 136 137 152 143 156 151 152 137 162 139 211 136 155 140 127 126 160 148 155 141 125 134 123 127 117 104 101 121 192 174 153 150 142 159 158 143 146 147 158 155 132 146 198 207 131 133 154 125 95 106 113
169 155 169 190 177 171 176 174 170 149 157 154 156 143 168 141 121 134 141 140 150 159 187 113 133 129 132 132 143 138 138 129 143 139 164 163 133 132 128 157 151 87 103 119 148 173 167 163 145 137 142 146 144 154 187 186 160 149 137 137 131 127 102
190 167 182 196 174 169 167 168 155 165 152 147 152 147 143 123 136 134 137 131 110 131 130 148 129 103 114 138 151 152 142 147 143 146 140 160 138 125 139 122 126 132 110 130 157 168 127 129 141 143 157 165 151 154 173 180 154 140 159 141 148 132 108
207 156 134 162 179 163 172 162 168 162 143 151 152 145 119 127 128 137 133 137 130 145 145 108 109 107 145 144 146 168 150 141 134 143 156 136 128 124 135 143 148 155 169 164 158 124 144 140 155 163 156 155 155 157 155 183 136 148 162 153 150 130 124
218 207 184 140 8 95 180 168 163 137 153 153 158 137 131 143 137 156 159 139 131 131 117 117 118 115 99 27 55 141 111 129 143 143 139 125 144 147 125 125 121 153 204 169 138 181 157 161 165 179 172 155 181 152 161 143 140 162 156 137 136 109 110
202 188 192 127 109 219 205 168 147 141 144 148 140 129 144 156 132 146 130 128 128 110 125 134 137 137 141 139 70 90 157 161 143 155 136 136 162 138 142 159 146 193 156 119 153 171 205 140 175 275 217 172 133 141 200 127 173 138 160 132 107 112 125
183 172 180 167 179 242 168 156 140 144 130 127 128 130 155 132 143 145 161 118 100 119 125 146 163 156 141 146 136 151 143 156 150 173 145 147 159 133 118 163 144 181 138 129 113 116 80 120 167 244 341 245 161 158 182 144 180 135 161 132 128 135 128
170 179 175 155 181 219 158 136 126 124 126 122 121 128 128 125 148 150 118 110 127 145 122 170 191 131 121 135 116 103 198 152 137 136 141 152 148 149 150 154 182 171 133 127 140 155 100 107 145 193 231 219 208 198 143 142 133 146 144 142 128 138 124
162 181 181 169 191 178 150 138 132 122 120 117 119 128 137 136 132 118 107 128 139 138 156 168 317 98 125 132 119 137 166 173 170 126 156 159 153 165 172 176 157 148 126 123 112 42 184 116 147 197 224 294 305 261 145 130 128 188 137 148 132 139 135
161 177 168 170 158 154 147 133 125 121 119 125 126 141 147 145 150 140 140 140 160 141 181 111 203 145 123 140 133 161 163 161 205 138 91 179 140 179 166 140 194 164 135 130 141 178 202 140 161 163 183 268 257 277 95 132 139 160 152 129 137 139 139
149 160 153 152 153 154 141 129 130 131 129 130 145 152 155 144 155 144 154 149 152 177 125 144 207 93 147 110 101 229 157 160 191 144 174 154 161 178 188 153 189 146 148 140 139 190 207 151 168 225 233 224 244 298 204 111 127 138 145 124 137 141 148
137 131 147 157 160 140 129 134 141 139 140 131 157 162 142 148 137 156 166 141 175 156 141 143 136 142 169 114 157 200 138 183 233 149 165 158 175 136 129 156 161 162 159 153 142 170 177 177 188 195 224 208 212 237 232 123 146 143 139 134 129 132 148
144 150 171 170 152 137 134 141 139 136 129 146 156 158 128 142 140 199 132 172 184 121 147 118 125 223 115 152 159 206 179 209 195 112 146 176 192 150 125 152 139 165 143 168 164 156 172 210 207 203 197 211 228 225 177 126 143 138 144 161 147 141 154
157 159 161 157 147 144 143 139 142 139 138 150 150 146 125 148 139 203 140 207 137 105 140 105 182 225 129 165 202 147 235 69 91 133 170 197 201 131 151 113 94 57 217 163 150 138 185 303 345 347 267 233 233 219 159 149 155 139 148 153 173 150 162
156 156 150 147 144 146 139 137 142 136 140 158 152 139 120 149 138 197 140 204 114 120 110 153 167 260 121 194 136 161 178 140 165 173 184 73 46 108 114 108 72 50 315 56 169 167 163 186 197 223 244 257 227 176 113 141 132 149 144 161 184 173 157
151 149 144 141 140 137 135 138 138 138 160 153 120 105 138 154 154 152 166 213 118 136 135 183 179 218 115 107 230 96 208 132 120 91 62 349 65 65 126 92 93 91 135 141 286 273 167 167 191 201 215 232 179 132 105 136 146 158 150 164 178 170 160
144 141 140 131 128 134 141 127 123 143 153 137 126 121 166 125 158 150 185 143 126 163 147 95 38 31 149 151 83 130 28 78 259 84 132 204 116 79 83 102 138 138 84 66 315 314 278 168 204 217 215 229 174 134 148 204 161 162 168 168 177 182 164
135 131 131 134 136 136 139 131 142 174 126 125 138 146 154 134 141 177 167 123 83 56 53 46 30 24 10 354 96 94 77 346 358 54 21 14 83 81 103 121 108 98 126 125 79 345 313 348 257 228 230 277 89 150 161 172 196 153 189 163 173 196 181
133 115 100 96 91 76 81 109 128 155 122 124 138 122 131 113 166 181 86 64 68 64 56 44 33 12 357 7 357 31 156 157 314 109 57 314 76 53 93 114 123 128 131 135 121 120 95 67 51 13 10 6 76 129 154 178 205 149 185 171 184 181 199
111 97 94 89 95 96 58 31 194 138 118 129 142 122 122 132 113 90 83 70 64 60 53 53 18 16 32 343 2 350 1 39 263 89 173 208 107 79 105 104 112 120 124 110 70 65 73 70 69 73 59 36 18 25 11 42 133 254 309 239 225 160 175
110 94 94 104 107 93 70 355 291 125 117 110 102 99 82 62 49 55 72 74 63 56 47 22 360 15 22 28 29 4 358 336 27 300 46 332 149 134 119 111 102 119 122 119 92 74 87 84 82 76 74 78 66 49 20 4 335 339 226 244 237 215 214
82 105 118 119 113 96 86 217 253 105 107 97 68 66 69 70 69 66 67 65 60 49 43 6 8 16 17 23 35 11 345 320 37 343 82 325 41 115 118 128 140 139 145 144 140 128 90 75 81 75 64 76 84 48 68 87 25 4 14 0 335 270 222
74 76 76 77 85 98 124 130 72 65 61 74 81 72 71 72 71 70 68 66 59 43 34 7 8 15 16 15 12 2 355 324 256 252 324 78 45 9 119 138 147 129 103 135 155 155 141 114 67 59 61 11 4 173 165 132 141 191 232 271 288 303 311
67 73 77 75 74 79 93 76 64 68 76 74 79 82 75 75 78 75 73 71 60 43 28 3 11 15 15 7 1 356 308 307 333 11 67 40 55 48 44 44 89 124 124 53 19 3 224 146 139 137 169 232 255 289 267 206 211 230 240 230 238 262 283
58 64 68 74 68 69 78 78 64 49 60 66 71 77 79 78 77 81 80 75 69 49 27 9 18 18 13 7 352 336 295 344 3 355 41 48 47 36 49 63 55 59 62 50 23 360 4 5 170 186 194 198 214 211 211 227 223 207 200 219 218 234 258
55 66 66 70 70 59 52 67 74 67 62 59 62 72 71 73 74 80 80 79 69 49 28 17 18 19 15 6 356 346 325 320 9 22 24 21 5 11 23 30 63 75 64 46 16 13 16 343 347 4 339 294 249 223 213 209 215 212 209 206 239 309 316
60 63 69 66 69 63 55 52 61 66 72 59 57 54 58 53 55 70 79 82 80 63 36 17 19 21 18 12 6 354 339 343 311 54 114 129 38 46 29 29 69 78 66 47 11 22 11 12 1 9 345 339 321 322 311 36 40 41 6 334 280 232 228
53 53 59 64 62 68 71 62 60 67 78 76 65 55 55 60 56 56 62 67 72 72 51 24 24 24 21 14 5 0 336 333 355 82 46 91 81 70 48 42 45 59 57 41 24 31 18 16 25 14 11 354 346 326 18 12 356 3 341 319 294 288 284
47 47 51 49 52 59 56 57 49 61 73 75 78 66 70 73 68 59 64 83 84 74 58 32 28 30 27 21 13 353 359 14 28 10 11 24 72 76 64 54 57 62 65 47 43 39 31 27 36 18 4 347 341 350 33 350 350 344 347 340 332 324 307
38 40 46 46 43 46 51 52 50 63 61 73 83 96 94 89 94 103 84 72 80 84 69 39 29 37 35 30 21 22 34 30 19 3 5 355 49 88 70 68 50 50 53 50 49 46 44 41 35 9 0 357 334 341 355 335 325 329 319 308 301 304 293
33 33 36 43 38 44 49 53 50 56 60 53 62 75 84 92 100 118 107 92 83 75 77 71 44 40 42 39 35 36 45 34 10 357 352 347 355 55 92 78 86 42 41 38 42 46 63 72 64 359 320 313 317 309 336 312 314 314 296 295 290 291 296
37 43 43 38 41 49 49 57 64 60 67 75 71 56 48 130 120 128 123 110 94 87 78 76 63 45 48 49 48 46 47 38 3 345 356 360 3 20 69 57 55 51 41 20 2 360 340 338 264 250 250 243 265 313 316 285 277 278 286 299 299 295 298
36 35 37 36 38 36 32 44 38 48 57 83 99 133 284 127 141 132 123 116 110 103 97 91 99 87 63 59 53 55 47 36 360 15 8 355 355 351 54 35 5 351 356 2 2 339 314 299 282 258 271 275 277 300 274 254 251 254 261 266 282 291 295
30 28 25 25 27 26 27 41 44 48 62 135 102 96 104 305 95 155 146 131 127 117 106 93 79 90 78 63 63 60 46 18 24 1 336 330 11 19 7 3 344 340 341 338 337 335 321 283 249 266 279 291 324 294 257 265 251 241 243 251 259 271 274